Terminal Aerodrome Forecast
Issued by NWS Denver/Boulder, CO

Home | Current Version | Previous Version | Text Only | Print | Product List | Glossary On
Versions: 1 2 3 4 5 6 7 8 9 10 11 12 13 14 15 16 17 18 19 20 21 22 23 24 25 26 27 28 29 30 31 32 33 34 35 36 37 38 39 40 41 42 43 44 45 46 47 48 49 50
000
FTUS45 KBOU 202320
TAFDEN
TAF
KDEN 202320Z 2100/2206 20014KT P6SM VCTS SCT120CB BKN150
      TEMPO 2100/2101 30016G24KT
     FM210200 22012KT P6SM SCT120 BKN200
     FM211400 25009KT P6SM SCT200
     FM211600 33005KT P6SM FEW120
     FM211900 06007KT P6SM SCT120 BKN200
      TEMPO 2122/2202 VRB15G25KT BKN120
     FM220200 16008KT P6SM SCT120 BKN200=

USA.gov is the U.S. government's official web portal to all federal, state and local government web resources and services.